Location: ????????
(60.4333°N, 46.4710°E)
Time: 02:49:29
(UTC+00:00)

SL-16 R/B - Pass Details

Date: 25 November 2020
Orbit: 842 x 846 km, 71.0° (Epoch: 19 January)

Event Time Altitude Azimuth Distance (km) Brightness Sun altitude
Rises 17:35:00 0° 305° (NW) 3,414 6.3 -38.9°
Reaches altitude 10° 17:37:41 10° 315° (NW) 2,478 5.3 -39.2°
Enters shadow 17:40:01 22° 332° (NNW) 1,781 4.3 -39.4°
